Waukegan, IL

5:09 PM CDT on June 20, 2018 (GMT -0500)
Waukegan Regional

Weather History for KUGN - December, 2017

Change the Weather History Date:

Thursday, December 7, 2017

  Actual Average Record
Temperature  
Mean Temperature 23 °F 29 °F  
Max Temperature 28 °F 36 °F 47 °F (2004)
Min Temperature 18 °F 23 °F -5 °F (2005)
Degree Days  
Heating Degree Days 42 36  
Month to date heating degree days 192 242  
Since 1 July heating degree days 1422 1627  
Cooling Degree Days 0 0  
Month to date cooling degree days 0 0  
Year to date cooling degree days 571 564  
Moisture  
Dew Point 9 °F    
Average Humidity 58    
Maximum Humidity 74    
Minimum Humidity 42    
Precipitation  
Precipitation T in 0.08 in 1.02 in (2004)
Month to date precipitation 0.18 0.59  
Year to date precipitation 36.46 34.18  
Sea Level Pressure  
Sea Level Pressure 30.14 in    
Wind  
Wind Speed 8 mph (WNW)    
Max Wind Speed 14 mph    
Max Gust Speed 22 mph    
Visibility 10 miles    
Events      
T = Trace of Precipitation, MM = Missing Value Source: NWS Daily Summary

Daily Weather History Graph

Daily Weather History Graph

Search for Another Location

Airport or City:

Astronomy

Dec. 07, 2017 Rise Set
Actual Time 7:07 AM CST 4:18 PM CST
Civil Twilight 6:35 AM CST 4:50 PM CST
Nautical Twilight 6:00 AM CST 5:25 PM CST
Astronomical Twilight 5:26 AM CST 5:59 PM CST
Moon 9:07 PM CST (12/7) 10:44 AM CST (12/7)
Length of Visible Light 10h 14m
Length of Day
9h 11m
Waning Gibbous, 77% of the Moon is Illuminated
Dec 7
Waning Gibbous
Dec 10
Last Quarter
Dec 18
New
Dec 26
First Quarter
Jan 1
Full

Hourly Weather History & Observations

Time (CST) Temp. Windchill Dew Point Humidity Pressure Visibility Wind Dir Wind Speed Gust Speed Precip Events Conditions
12:55 AM 21.9 °F 13.4 °F 10.9 °F 63% 30.10 in 10.0 mi Variable 6.9 mph 21.9 mph N/A   Overcast
1:38 AM 21.0 °F 9.9 °F 12.0 °F 68% 30.06 in 10.0 mi NW 10.4 mph 17.3 mph N/A   Overcast
1:55 AM 21.0 °F 10.6 °F 10.9 °F 65% 30.12 in 10.0 mi WNW 9.2 mph - N/A   Overcast
2:55 AM 21.0 °F 11.4 °F 9.0 °F 60% 30.13 in 10.0 mi WNW 8.1 mph - N/A   Overcast
3:55 AM 19.9 °F 7.9 °F 10.0 °F 65% 30.13 in 10.0 mi NW 11.5 mph 17.3 mph N/A   Overcast
4:55 AM 19.0 °F 9.0 °F 12.0 °F 74% 30.14 in 9.0 mi WNW 8.1 mph - N/A   Mostly Cloudy
5:55 AM 19.0 °F 11.1 °F 12.9 °F 77% 30.15 in 10.0 mi Variable 5.8 mph - N/A   Mostly Cloudy
6:55 AM 18.0 °F 6.9 °F 10.9 °F 74% 30.17 in 10.0 mi WNW 9.2 mph - N/A   Partly Cloudy
7:48 AM 19.9 °F 10.1 °F 12.0 °F 71% 30.12 in 10.0 mi WNW 8.1 mph - N/A   Overcast
7:55 AM 19.9 °F 10.1 °F 12.0 °F 71% 30.18 in 10.0 mi WNW 8.1 mph - N/A   Overcast
8:55 AM 19.9 °F 7.9 °F 12.0 °F 71% 30.19 in 10.0 mi WNW 11.5 mph - N/A   Overcast
9:55 AM 21.0 °F 11.4 °F 12.0 °F 68% 30.19 in 7.0 mi West 8.1 mph 20.7 mph 0.00 in   Overcast
10:55 AM 23.0 °F 13.1 °F 12.0 °F 63% 30.18 in 10.0 mi West 9.2 mph 20.7 mph N/A   Mostly Cloudy
11:14 AM 24.1 °F 13.7 °F 12.0 °F 60% 30.12 in 10.0 mi NW 10.4 mph 18.4 mph N/A   Partly Cloudy
11:55 AM 25.0 °F 15.5 °F 10.9 °F 55% 30.15 in 10.0 mi West 9.2 mph 17.3 mph N/A   Clear
12:55 PM 27.0 °F 17.3 °F 9.0 °F 47% 30.14 in 10.0 mi West 10.4 mph 20.7 mph N/A   Clear
1:55 PM 27.0 °F 18.0 °F 8.1 °F 45% 30.14 in 10.0 mi West 9.2 mph 17.3 mph N/A   Clear
2:55 PM 27.0 °F 18.0 °F 7.0 °F 43% 30.13 in 10.0 mi West 9.2 mph 20.7 mph N/A   Clear
3:55 PM 26.1 °F 16.2 °F 6.1 °F 43% 30.14 in 10.0 mi West 10.4 mph 18.4 mph N/A   Clear
4:55 PM 24.1 °F 17.0 °F 8.1 °F 51% 30.15 in 10.0 mi Variable 5.8 mph - N/A   Clear
5:55 PM 23.0 °F 15.8 °F 9.0 °F 55% 30.16 in 10.0 mi West 5.8 mph - N/A   Clear
6:55 PM 21.9 °F 11.7 °F 7.0 °F 53% 30.16 in 10.0 mi West 9.2 mph - N/A   Clear
7:55 PM 21.0 °F 13.4 °F 7.0 °F 55% 30.15 in 10.0 mi Variable 5.8 mph - N/A   Clear
8:55 PM 21.0 °F 11.4 °F 7.0 °F 55% 30.14 in 10.0 mi West 8.1 mph - N/A   Clear
9:55 PM 19.9 °F 10.1 °F 5.0 °F 52% 30.12 in 10.0 mi West 8.1 mph - N/A   Clear
10:55 PM 19.9 °F 11.1 °F 5.0 °F 52% 30.12 in 10.0 mi WSW 6.9 mph - N/A   Clear
11:55 PM 19.0 °F 10.0 °F 5.0 °F 54% 30.10 in 10.0 mi WSW 6.9 mph - N/A   Clear